Maraba, Brazil

10:50 PM -03 on May 22, 2017 (GMT -0300)
Maraba

Weather History for SBMA - July, 2013

Change the Weather History Date:

Thursday, July 4, 2013

  Actual Average Record
Temperature  
Mean Temperature 84 °F -  
Max Temperature 96 °F 91 °F 96 °F (2005)
Min Temperature 72 °F 70 °F 66 °F (1996)
Cooling Degree Days 19    
Growing Degree Days 34 (Base 50)    
Moisture  
Dew Point 74 °F    
Average Humidity 76    
Maximum Humidity 100    
Minimum Humidity 47    
Precipitation  
Precipitation 0.00 in 0.03 in - ()
Sea Level Pressure  
Sea Level Pressure 29.93 in    
Wind  
Wind Speed 2 mph ()    
Max Wind Speed 8 mph    
Max Gust Speed -    
Visibility 6.0 miles    
Events      
Averages and records for this station are not official NWS values.
T = Trace of Precipitation, MM = Missing Value Source: Averaged Metar Reports

Daily Weather History Graph

Daily Weather History Graph

Search for Another Location

Airport or City:

Trip Planner

Search our weather history database for the weather conditions in past years. The results will help you decide how hot, cold, wet, or windy it might be!

Date:

Astronomy

Jul. 04, 2013 Rise Set
Actual Time 6:26 AM -03 6:15 PM -03
Civil Twilight 6:03 AM -03 6:38 PM -03
Nautical Twilight 5:37 AM -03 7:04 PM -03
Astronomical Twilight 5:11 AM -03 7:30 PM -03
Moon 3:20 AM -03 (7/4) 3:28 PM -03 (7/4)
Length of Visible Light 12h 34m
Length of Day
11h 49m
Waning Crescent, 12% of the Moon is Illuminated
Jul 4
Waning Crescent
Jul 8
New
Jul 16
First Quarter
Jul 22
Full
Jul 29
Last Quarter

Hourly Weather History & Observations

Time (-03) Temp. Heat Index Dew Point Humidity Pressure Visibility Wind Dir Wind Speed Gust Speed Precip Events Conditions
12:00 AM 75.2 °F - 73.4 °F 94% 29.98 in - Calm Calm - N/A   Clear
1:00 AM 73.4 °F - 73.4 °F 100% 29.95 in - Calm Calm - N/A   Clear
2:00 AM 73.4 °F - 73.4 °F 100% 29.92 in - NW 2.3 mph - N/A   Clear
3:00 AM 71.6 °F - 71.6 °F 100% 29.89 in - NNW 1.2 mph - N/A   Clear
4:00 AM 71.6 °F - 71.6 °F 100% 29.92 in - Calm Calm - N/A   Clear
5:00 AM 71.6 °F - 71.6 °F 100% 29.92 in - Calm Calm - N/A   Clear
6:00 AM 71.6 °F - 71.6 °F 100% 29.92 in 6.2 mi Calm Calm - N/A   Partly Cloudy
7:00 AM - - - N/A% 29.95 in 3.1 mi Calm Calm - N/A   Scattered Clouds
8:00 AM - - - N/A% 29.98 in 3.1 mi Calm Calm - N/A   Mostly Cloudy
9:00 AM 79 °F - 75 °F 84%  in 12 mi West 2.3 mph - -   Partly Cloudy
9:00 AM 80.6 °F 87.1 °F 77.0 °F 89% 30.01 in 3.7 mi West 2.3 mph - N/A   Scattered Clouds
10:00 AM 89.6 °F 99.8 °F 75.2 °F 62% 30.01 in 6.2 mi East 2.3 mph - N/A   Partly Cloudy
11:00 AM 93.2 °F 105.0 °F 75.2 °F 56% 29.98 in 6.2 mi SSE 4.6 mph - N/A   Partly Cloudy
12:00 PM 95.0 °F 104.5 °F 73.4 °F 49% 29.98 in 6.2 mi South 6.9 mph - N/A   Partly Cloudy
1:00 PM 96.8 °F 107.3 °F 73.4 °F 47% 29.92 in 6.2 mi South 6.9 mph - N/A   Scattered Clouds
2:00 PM 95.0 °F 104.5 °F 73.4 °F 49% 29.92 in 6.2 mi South 8.1 mph - N/A   Mostly Cloudy
3:00 PM 95.0 °F 104.5 °F 73.4 °F 49% 29.89 in 6.2 mi SE 8.1 mph - N/A   Mostly Cloudy
4:00 PM 93.2 °F 100.5 °F 71.6 °F 49% 29.86 in 6.2 mi SSE 4.6 mph - N/A   Scattered Clouds
5:00 PM 93.2 °F 100.5 °F 71.6 °F 49% 29.86 in 6.2 mi SE 5.8 mph - N/A   Scattered Clouds
6:00 PM 89.6 °F 96.2 °F 71.6 °F 55% 29.86 in 6.2 mi SE 4.6 mph - N/A   Partly Cloudy
7:00 PM 82.4 °F 88.2 °F 73.4 °F 74% 29.89 in - South 2.3 mph - N/A   Clear
8:00 PM 78.8 °F - 75.2 °F 89% 29.92 in 6.2 mi Calm Calm - N/A   Scattered Clouds
9:00 PM 80.6 °F 86.2 °F 75.2 °F 84% 29.95 in 6.2 mi Calm Calm - N/A   Scattered Clouds
10:00 PM 80.6 °F 86.2 °F 75.2 °F 84% 29.95 in - East 2.3 mph - N/A   Clear
11:00 PM 78.8 °F - 75.2 °F 89% 29.98 in - East 1.2 mph - N/A   Clear